International Virtual Aviation Organisation

Russian Federation and Kazakhstan MCD

 

Карточка аэропорта UIBB

Внимание!
Информация на этой странице в стадии наполнения.
Если вы не увидели какой-то информации, или заметили неточность - пожалуйста сообщите нам!
Спасибо!
Команда RU-STAFF
Название аэропортаБратск
Название аэропорта (англ.)Bratsk
Превышение1598 ft. (487.1 m.)
Координаты56°22.236', 101°41.94'
Высота перехода900m
Эшелон переходаQFE>=715mm:FL060; QFE<715=>688:FL070; QFE<688:FL080
Коды ответчика3301-3327
Зона ОрВДИркутск РПИ (UIII)
Данные METARUIBB 302200Z 26001MPS 5000 -SHSN BKN041CB M05/M06 Q1014 R30/920250 NOSIG RMK QFE718/0957
Проноз погоды (TAF)UIBB 302100Z 3021/3121 23003G08MPS 2500 -SHSN FEW005 BKN011CB TEMPO 3021/3102 0900 +SHSN VV002 BECMG 3102/3103 29005G12MPS 9999 -SHSN
NOTAMshow/hide NOTAM
AWOS   TABLE

Информация о ВПП


Диспетчерские позиции

Позывной Наименование органа УВД Частота
UIBB_APPБратск-Подход118.1
UIBB_GNDБратск-Руление121.8



Спутниковое изображение